Location: Sabana Grande
(18.0777°N, 66.9605°W)
Time: 20:00:30
(UTC-04:00)

ACS3 Solar Sail - Pass Details

Date: 23 September 2024
Orbit: 959 x 1034 km, 97.5° (Epoch: 14 October)

Event Time Altitude Azimuth Distance (km) Brightness Sun altitude
Rises 10:14:38 0° 349° (NNW) 3,727 4.6 54.1°
Reaches altitude 10° 10:17:46 10° 334° (NNW) 2,763 4.0 54.7°
Drops below altitude 10° 10:26:35 10° 241° (WSW) 2,724 4.1 56.5°
Enters shadow 11:06:38 -71° 155° (SSE) 13,115 7.1 64.2°
Exits shadow 11:30:42 -55° 37° (NE) 11,708 6.8 67.9°
